Flag for Maldives Weather past 2 weeks in Male, Maldives

Now
81 °F

Passing clouds.


Feels Like: 88 °F
Forecast: 79 / 85 °F
Wind: 10 mph from Southwest

Location: Male Airport

Current Time: Oct 2, 2014 at 5:53:57 AM

Latest Report: Oct 2, 2014 at 5:00 AM


Visibility: N/A

Pressure: 29.83 "Hg

Humidity: 94%

Dew point: 79 °F

Location of MaleLocation

Historic Weather in Male — Graph

°F

Male temperature yesterday

Maximum temperature yesterday: 86 °F (at 11:00 AM)
Minimum temperature yesterday: 81 °F (at 12:00 AM)
Average temperature yesterday: 84 °F

Past Weeks' High & Low Weather Summary

 TemperatureHumidityPressure
High88 °F (Sep 22, 1:00 PM)94% (Sep 17, 5:00 PM)29.95 "Hg (Sep 17, 5:00 PM)
Low77 °F (Sep 17, 5:00 PM)70% (Sep 18, 2:00 PM)29.77 "Hg (Sep 20, 4:00 PM)
Average83 °F80%29.85 "Hg
* Reported Sep 17 4:00 AM — Oct 2 4:00 AM, Male, Weather by CustomWeather, © 2014

Note: Actual official high and low records may vary slightly from our data, if they occured in-between our weather recording intervals... More about our weather records

Advertising

Male weather history for previous 24 hours

 ConditionsComfort  
Time TempWeatherWind HumidityBarometerVisibility
4:00 AM
Oct 2
82 °FSprinkles. Passing clouds.5 mph84%29.83 "HgN/A
3:00 AM82 °FPassing clouds.9 mph84%29.80 "HgN/A
2:00 AM82 °FPassing clouds.6 mph84%29.83 "HgN/A
1:00 AM82 °FPassing clouds.7 mph84%29.83 "HgN/A
12:00 AM82 °FPassing clouds.6 mph84%29.86 "HgN/A
11:00 PM
Oct 1
82 °FPartly cloudy.6 mph84%29.89 "HgN/A
10:00 PM84 °FPassing clouds.N/A84%29.89 "HgN/A
9:00 PM84 °FPassing clouds.8 mph79%29.89 "HgN/A
8:00 PM82 °FPassing clouds.9 mph89%29.86 "HgN/A
7:00 PM84 °FPassing clouds.10 mph84%29.83 "HgN/A
6:00 PM84 °FPassing clouds.12 mph84%29.83 "HgN/A
5:00 PM84 °FPartly sunny.12 mph84%29.80 "HgN/A
4:00 PM84 °FBroken clouds.10 mph84%29.80 "HgN/A
3:00 PM84 °FBroken clouds.13 mph79%29.80 "HgN/A
2:00 PM86 °FBroken clouds.9 mph75%29.83 "HgN/A
1:00 PM86 °FPartly sunny.14 mph75%29.83 "HgN/A
12:00 PM86 °FPartly sunny.14 mph75%29.86 "HgN/A
11:00 AM86 °FPartly sunny.9 mph79%29.89 "HgN/A
10:00 AM84 °FPartly sunny.12 mph74%29.92 "HgN/A
9:00 AM84 °FPartly sunny.9 mph74%29.89 "HgN/A
8:00 AM82 °FPartly sunny.9 mph84%29.89 "HgN/A
7:00 AM82 °FBroken clouds.15 mph84%29.86 "HgN/A
6:00 AM82 °FPartly sunny.9 mph89%29.83 "HgN/A
5:00 AM82 °FOvercast.13 mph84%29.83 "HgN/A
Weather by CustomWeather, © 2014

See weather overviewHow to use our weather pages